• In Portugal
  • List of Countries
  • For 7 days
  • Water Temperature
  • Satellite Maps
  • Weather Map
  • Weather Widgets
  • user-avatar
    Login

    Hourly Weather Kobdo

    Today, 21 June, Thursday

    Time Temperature Precipitation Wind Pressure Humidity
    00:00 +15°C° 0 mm 1 mps 589 mmHg 56%
    01:00 +14°C° 0 mm 1 mps 589 mmHg 57%
    02:00 +14°C° 0 mm 1 mps 589 mmHg 58%
    03:00 +14°C° 0 mm 1 mps 589 mmHg 59%
    04:00 +14°C° 0 mm 1 mps 589 mmHg 57%
    05:00 +15°C° 0 mm 1 mps 589 mmHg 55%
    06:00 +15°C° 0 mm 1 mps 589 mmHg 53%
    07:00 +16°C° 0.1 mm 1 mps 590 mmHg 50%
    08:00 +18°C° 0.1 mm 1 mps 590 mmHg 47%
    09:00 +18°C° 0.1 mm 1 mps 590 mmHg 43%
    10:00 +19°C° 0.3 mm 1 mps 590 mmHg 43%
    11:00 +19°C° 0.3 mm 1 mps 590 mmHg 42%
    12:00 +19°C° 0.3 mm 1 mps 590 mmHg 41%
    13:00 +18°C° 0.5 mm 2 mps 590 mmHg 42%
    14:00 +18°C° 0.5 mm 2 mps 590 mmHg 44%
    15:00 +18°C° 0.5 mm 2 mps 590 mmHg 45%
    16:00 +18°C° 0.3 mm 2 mps 590 mmHg 46%
    17:00 +17°C° 0.3 mm 2 mps 590 mmHg 47%
    18:00 +17°C° 0.3 mm 3 mps 590 mmHg 48%
    19:00 +17°C° 0.1 mm 2 mps 590 mmHg 51%
    20:00 +16°C° 0.1 mm 2 mps 591 mmHg 53%
    21:00 +16°C° 0.1 mm 2 mps 591 mmHg 56%
    22:00 +15°C° 0.1 mm 2 mps 591 mmHg 59%
    23:00 +15°C° 0.1 mm 2 mps 591 mmHg 62%

    Tomorrow, 22 June, Friday

    Time Temperature Precipitation Wind Pressure Humidity
    00:00 +14°C° 0.1 mm 2 mps 591 mmHg 65%
    01:00 +13°C° 0.4 mm 2 mps 590 mmHg 69%
    02:00 +13°C° 0.4 mm 2 mps 590 mmHg 73%
    03:00 +12°C° 0.4 mm 1 mps 590 mmHg 77%
    04:00 +12°C° 0.3 mm 1 mps 590 mmHg 74%
    05:00 +12°C° 0.3 mm 1 mps 590 mmHg 71%
    06:00 +13°C° 0.3 mm 1 mps 591 mmHg 68%
    07:00 +13°C° 0.2 mm 1 mps 591 mmHg 63%
    08:00 +14°C° 0.2 mm 1 mps 591 mmHg 58%
    09:00 +15°C° 0.2 mm 1 mps 592 mmHg 52%
    10:00 +16°C° 0.4 mm 2 mps 592 mmHg 49%
    11:00 +16°C° 0.4 mm 2 mps 592 mmHg 46%
    12:00 +17°C° 0.4 mm 2 mps 592 mmHg 43%
    13:00 +17°C° 0.5 mm 2 mps 592 mmHg 42%
    14:00 +18°C° 0.5 mm 3 mps 592 mmHg 41%
    15:00 +18°C° 0.5 mm 3 mps 592 mmHg 40%
    16:00 +18°C° 0.6 mm 3 mps 591 mmHg 40%
    17:00 +17°C° 0.6 mm 3 mps 591 mmHg 41%
    18:00 +17°C° 0.6 mm 2 mps 591 mmHg 42%
    19:00 +17°C° 0.4 mm 2 mps 591 mmHg 44%
    20:00 +16°C° 0.4 mm 2 mps 591 mmHg 46%
    21:00 +15°C° 0.4 mm 1 mps 591 mmHg 49%
    22:00 +15°C° 0.1 mm 1 mps 591 mmHg 51%
    23:00 +14°C° 0.1 mm 1 mps 590 mmHg 53%

    Day after tomorrow, 23 June, Saturday

    Time Temperature Precipitation Wind Pressure Humidity
    00:00 +13°C° 0.1 mm 1 mps 590 mmHg 55%
    01:00 +13°C° 0 mm 1 mps 590 mmHg 57%
    02:00 +12°C° 0 mm 1 mps 589 mmHg 59%
    03:00 +11°C° 0 mm 0 mps 589 mmHg 61%
    04:00 +12°C° 0 mm 1 mps 589 mmHg 57%
    05:00 +13°C° 0 mm 1 mps 590 mmHg 54%
    06:00 +13°C° 0 mm 1 mps 590 mmHg 51%
    07:00 +14°C° 0 mm 1 mps 590 mmHg 48%
    08:00 +15°C° 0 mm 1 mps 591 mmHg 45%
    09:00 +16°C° 0 mm 1 mps 591 mmHg 42%
    10:00 +18°C° 0.3 mm 1 mps 591 mmHg 40%
    11:00 +17°C° 0.3 mm 2 mps 591 mmHg 38%
    12:00 +18°C° 0.3 mm 2 mps 591 mmHg 36%
    13:00 +19°C° 0.4 mm 2 mps 591 mmHg 35%
    14:00 +19°C° 0.4 mm 2 mps 591 mmHg 34%
    15:00 +19°C° 0.4 mm 2 mps 591 mmHg 33%
    16:00 +19°C° 0.2 mm 2 mps 590 mmHg 34%
    17:00 +19°C° 0.2 mm 2 mps 590 mmHg 34%
    18:00 +19°C° 0.2 mm 2 mps 590 mmHg 35%
    19:00 +18°C° 0.2 mm 2 mps 590 mmHg 39%
    20:00 +18°C° 0.2 mm 1 mps 590 mmHg 44%
    21:00 +16°C° 0.2 mm 1 mps 590 mmHg 48%
    22:00 +15°C° 0.1 mm 1 mps 590 mmHg 50%
    23:00 +14°C° 0.1 mm 1 mps 589 mmHg 52%

    24 June, Sunday

    Time Temperature Precipitation Wind Pressure Humidity
    00:00 +14°C° 0.1 mm 1 mps 589 mmHg 53%
    01:00 +13°C° 0 mm 1 mps 589 mmHg 55%
    02:00 +13°C° 0 mm 1 mps 589 mmHg 56%
    03:00 +11°C° 0 mm 0 mps 588 mmHg 58%
    04:00 +12°C° 0 mm 0 mps 589 mmHg 54%
    05:00 +12°C° 0 mm 0 mps 589 mmHg 51%
    06:00 +13°C° 0 mm 0 mps 590 mmHg 47%
    07:00 +15°C° 0 mm 1 mps 590 mmHg 44%
    08:00 +16°C° 0 mm 1 mps 590 mmHg 41%
    09:00 +18°C° 0 mm 1 mps 591 mmHg 38%
    10:00 +19°C° 0 mm 1 mps 591 mmHg 35%
    11:00 +19°C° 0 mm 2 mps 591 mmHg 32%
    12:00 +20°C° 0 mm 2 mps 591 mmHg 30%
    13:00 +20°C° 0 mm 2 mps 591 mmHg 29%
    14:00 +21°C° 0 mm 2 mps 591 mmHg 27%
    15:00 +21°C° 0 mm 3 mps 591 mmHg 26%
    16:00 +21°C° 0 mm 3 mps 591 mmHg 27%
    17:00 +21°C° 0 mm 2 mps 591 mmHg 29%
    18:00 +20°C° 0 mm 2 mps 591 mmHg 30%
    19:00 +19°C° 0 mm 2 mps 591 mmHg 35%
    20:00 +19°C° 0 mm 1 mps 590 mmHg 40%
    21:00 +18°C° 0 mm 1 mps 590 mmHg 45%
    22:00 +16°C° 0 mm 1 mps 590 mmHg 47%
    23:00 +16°C° 0 mm 1 mps 590 mmHg 49%

    25 June, Monday

    Time Temperature Precipitation Wind Pressure Humidity
    00:00 +15°C° 0 mm 1 mps 589 mmHg 51%
    01:00 +13°C° 0 mm 0 mps 589 mmHg 52%
    02:00 +13°C° 0 mm 0 mps 589 mmHg 53%
    03:00 +12°C° 0 mm 0 mps 588 mmHg 55%
    04:00 +13°C° 0 mm 0 mps 589 mmHg 51%
    05:00 +14°C° 0 mm 0 mps 590 mmHg 47%
    06:00 +15°C° 0 mm 0 mps 590 mmHg 43%
    07:00 +18°C° 0 mm 1 mps 591 mmHg 40%
    08:00 +19°C° 0 mm 1 mps 591 mmHg 38%
    09:00 +19°C° 0 mm 2 mps 591 mmHg 35%
    10:00 +20°C° 0 mm 2 mps 591 mmHg 33%
    11:00 +21°C° 0 mm 2 mps 592 mmHg 30%
    12:00 +22°C° 0 mm 3 mps 592 mmHg 28%
    13:00 +22°C° 0 mm 3 mps 592 mmHg 27%
    14:00 +24°C° 0 mm 3 mps 592 mmHg 27%
    15:00 +23°C° 0 mm 4 mps 592 mmHg 26%
    16:00 +24°C° 0 mm 3 mps 591 mmHg 26%
    17:00 +22°C° 0 mm 3 mps 591 mmHg 27%
    18:00 +22°C° 0 mm 3 mps 591 mmHg 28%
    19:00 +21°C° 0 mm 2 mps 591 mmHg 32%
    20:00 +21°C° 0 mm 1 mps 590 mmHg 36%
    21:00 +19°C° 0 mm 1 mps 590 mmHg 40%
    22:00 +19°C° 0 mm 1 mps 590 mmHg 40%
    23:00 +19°C° 0 mm 1 mps 590 mmHg 40%

    26 June, Tuesday

    Time Temperature Precipitation Wind Pressure Humidity
    00:00 +19°C° 0 mm 1 mps 590 mmHg 39%
    01:00 +18°C° 0 mm 1 mps 590 mmHg 40%
    02:00 +18°C° 0 mm 1 mps 589 mmHg 41%
    03:00 +16°C° 0 mm 1 mps 589 mmHg 42%
    04:00 +18°C° 0 mm 1 mps 590 mmHg 42%
    05:00 +17°C° 0 mm 2 mps 590 mmHg 41%
    06:00 +17°C° 0 mm 2 mps 590 mmHg 41%
    07:00 +17°C° 0.1 mm 2 mps 590 mmHg 40%
    08:00 +17°C° 0.1 mm 2 mps 590 mmHg 39%
    09:00 +18°C° 0.1 mm 2 mps 590 mmHg 37%
    10:00 +19°C° 0.1 mm 1 mps 591 mmHg 36%
    11:00 +20°C° 0.1 mm 1 mps 591 mmHg 34%
    12:00 +20°C° 0.1 mm 1 mps 591 mmHg 32%
    13:00 +20°C° 0 mm 2 mps 591 mmHg 30%
    14:00 +20°C° 0 mm 2 mps 591 mmHg 28%
    15:00 +21°C° 0 mm 3 mps 591 mmHg 26%
    16:00 +21°C° 0 mm 3 mps 591 mmHg 26%
    17:00 +21°C° 0 mm 3 mps 591 mmHg 27%
    18:00 +20°C° 0 mm 3 mps 591 mmHg 27%
    19:00 +19°C° 0 mm 2 mps 591 mmHg 31%
    20:00 +18°C° 0 mm 2 mps 590 mmHg 34%
    21:00 +17°C° 0 mm 2 mps 590 mmHg 38%
    22:00 +16°C° 0 mm 2 mps 590 mmHg 40%
    23:00 +15°C° 0 mm 2 mps 590 mmHg 41%
    Show more